Change the Weather History Date:

Friday, September 20, 2013

  Actual Average Record
Temperature  
Mean Temperature 60 °F 64 °F  
Max Temperature 73 °F 76 °F 96 °F (1940)
Min Temperature 46 °F 52 °F 32 °F (1983)
Degree Days  
Heating Degree Days 5 4  
Month to date heating degree days 15 37  
Since 1 July heating degree days 21 43  
Cooling Degree Days 0 3  
Month to date cooling degree days 158 91  
Year to date cooling degree days 1116 1044  
Growing Degree Days 10 (Base 50)    
Moisture  
Dew Point 43 °F    
Average Humidity 58    
Maximum Humidity 86    
Minimum Humidity 29    
Precipitation  
Precipitation 0.00 in 0.08 in 1.26 in (1950)
Month to date precipitation 0.68 1.77  
Year to date precipitation 18.74 22.43  
Snow  
Snow 0.00 in 0.00 in - ()
Month to date snowfall 0.0 0.1  
Since 1 July snowfall 0.0 0.1  
Since 1 September snowfall 0.0 0.1  
Snow Depth 0.00 in    
Sea Level Pressure  
Sea Level Pressure 30.07 in    
Wind  
Wind Speed 7 mph (NNW)    
Max Wind Speed 18 mph    
Max Gust Speed 26 mph    
Visibility 10 miles    
Events      
T = Trace of Precipitation, MM = Missing Value Source: NWS Daily Summary

Daily Weather History Graph

Daily Weather History Graph

Search for Another Location

Airport or City:

Trip Planner

Search our weather history database for the weather conditions in past years. The results will help you decide how hot, cold, wet, or windy it might be!

Date:

Astronomy

Sep. 20, 2013 Rise Set
Actual Time 7:19 AM CDT 7:33 PM CDT
Civil Twilight 6:52 AM CDT 8:01 PM CDT
Nautical Twilight 6:20 AM CDT 8:32 PM CDT
Astronomical Twilight 5:47 AM CDT 9:05 PM CDT
Moon 8:07 PM CDT (9/20) 8:36 AM CDT (9/20)
Length of Visible Light 13h 08m
Length of Day
12h 14m
Full, 98% of the Moon is Illuminated
Sep 20
Full
Sep 26
Last Quarter
Oct 4
New
Oct 11
First Quarter
Oct 18
Full

Hourly Weather History & Observations

Time (CDT) Temp. Dew Point Humidity Pressure Visibility Wind Dir Wind Speed Gust Speed Precip Events Conditions
12:53 AM 51.1 °F 46.9 °F 86% 30.09 in 10.0 mi WNW 4.6 mph - N/A   Clear
1:53 AM 50.0 °F 46.0 °F 86% 30.09 in 10.0 mi NW 5.8 mph - N/A   Clear
2:53 AM 51.1 °F 46.0 °F 83% 30.09 in 10.0 mi NNW 8.1 mph - N/A   Clear
3:53 AM 50.0 °F 44.1 °F 80% 30.09 in 10.0 mi NNW 9.2 mph - N/A   Clear
4:53 AM 48.9 °F 43.0 °F 80% 30.09 in 10.0 mi NNW 8.1 mph - N/A   Clear
5:53 AM 48.0 °F 43.0 °F 83% 30.10 in 10.0 mi NNW 9.2 mph - N/A   Clear
6:53 AM 46.9 °F 42.1 °F 83% 30.12 in 10.0 mi NW 9.2 mph - N/A   Clear
7:53 AM 46.9 °F 42.1 °F 83% 30.14 in 10.0 mi NNW 6.9 mph - N/A   Clear
8:53 AM 52.0 °F 42.1 °F 69% 30.13 in 10.0 mi NNW 9.2 mph - N/A   Clear
9:53 AM 57.9 °F 42.1 °F 56% 30.14 in 10.0 mi NNW 13.8 mph - N/A   Clear
10:53 AM 61.0 °F 39.9 °F 46% 30.15 in 10.0 mi NNW 17.3 mph 26.5 mph N/A   Clear
11:53 AM 64.9 °F 42.1 °F 43% 30.12 in 10.0 mi North 12.7 mph - N/A   Clear
12:53 PM 68.0 °F 42.1 °F 39% 30.10 in 10.0 mi NW 12.7 mph 21.9 mph N/A   Clear
1:53 PM 69.1 °F 41.0 °F 36% 30.08 in 10.0 mi NNW 10.4 mph 23.0 mph N/A   Clear
2:53 PM 71.1 °F 41.0 °F 34% 30.04 in 10.0 mi NW 8.1 mph - N/A   Clear
3:53 PM 73.0 °F 41.0 °F 31% 30.02 in 10.0 mi NNW 10.4 mph 17.3 mph N/A   Clear
4:53 PM 73.0 °F 39.9 °F 30% 30.01 in 10.0 mi NW 8.1 mph - N/A   Clear
5:53 PM 73.0 °F 41.0 °F 31% 30.01 in 10.0 mi NNW 10.4 mph - N/A   Clear
6:53 PM 70.0 °F 43.0 °F 38% 30.00 in 10.0 mi NNE 4.6 mph - N/A   Clear
7:53 PM 64.0 °F 45.0 °F 50% 30.01 in 10.0 mi Calm Calm - N/A   Clear
8:53 PM 60.1 °F 46.9 °F 62% 30.01 in 10.0 mi Calm Calm - N/A   Clear
9:53 PM 55.9 °F 46.9 °F 72% 30.02 in 10.0 mi Calm Calm - N/A   Clear
10:53 PM 57.0 °F 46.0 °F 67% 30.03 in 10.0 mi South 3.5 mph - N/A   Clear
11:53 PM 55.9 °F 46.0 °F 69% 30.02 in 10.0 mi Calm Calm - N/A   Clear